Retour au catalogue

STARLINK-2187

ActifCommunicationsVLEO
NORAD 48562·PAYLOAD·🇺🇸 United States

Lancé May 15, 2021 depuis Cape Canaveral Space Force Station

Loading…

Prochains Passages (prochaines 24 heures)

TLE

FraisSource: CelesTrak SupGP

Époque: Sep 14, 2026, 21:45 UTC

1 48562C 21041K   26257.90673611  .00331660  00000+0  13086-2 0  2573
2 48562  53.1467 291.0967 0007438  13.4602 208.5154 15.85895482    16

Suivez STARLINK-2187 en temps réel avec AllMySat

Download on the App Store